GEFSGL_con_prob3kmehi_216.txt.gz
EHI
17 16 13 9 6 5 4 3 3 3 3 3 5 7 7 7 7 6 4 3 3 3 3 2 2 3 4 4 3 3 3 3 1 1 1 1 0 0 0 0 0 0 0
19 20 17 10 5 4 4 4 3 3 4 3 4 6 6 6 7 6 4 3 3 3 3 4 5 6 5 4 3 3 3 3 2 2 2 2 1 0 0 0 0 0 0
24 24 21 14 7 5 5 5 4 3 4 3 3 4 5 5 6 5 4 4 3 3 4 7 8 8 6 5 4 4 3 3 3 3 3 2 1 0 0 0 0 0 0
26 25 23 18 13 9 7 6 5 4 3 3 3 3 4 4 4 4 5 5 4 4 5 7 8 8 6 5 5 4 3 2 3 3 3 2 1 0 0 0 0 0 0
24 25 23 19 15 12 11 10 9 7 6 5 4 4 3 3 3 4 5 6 6 6 6 6 6 5 4 4 4 3 3 2 3 3 4 3 1 0 0 0 0 0 0
22 23 22 18 14 13 13 13 11 11 10 8 7 6 5 4 3 3 4 5 6 6 6 5 4 4 3 3 2 1 1 2 2 3 4 4 2 1 0 0 0 0 0
22 22 22 19 15 14 13 12 12 13 14 12 10 8 7 6 4 3 3 4 5 6 6 6 5 4 3 3 2 1 1 1 1 2 3 3 2 2 1 0 0 0 0
23 22 21 19 16 13 13 13 14 15 15 14 12 10 9 7 4 2 2 3 4 6 6 6 5 4 3 3 3 3 2 1 0 1 1 1 1 1 1 0 0 0 0
22 21 19 17 15 14 14 14 15 16 16 14 12 11 9 7 4 1 1 2 4 5 5 5 5 3 1 2 3 3 3 2 1 0 0 0 0 0 0 0 0 0 0
17 17 17 17 17 16 14 14 14 14 14 13 12 11 9 7 3 1 1 2 3 3 4 4 4 2 1 1 2 3 3 3 2 1 1 1 0 0 0 0 0 0 0
12 13 16 19 19 18 15 13 12 11 11 11 11 9 9 7 3 1 0 1 1 2 3 3 2 1 0 0 1 2 2 2 2 2 2 1 0 0 0 0 0 0 0
11 13 16 17 18 17 17 15 12 10 9 9 8 7 6 5 3 2 1 0 1 2 2 2 1 0 0 0 0 1 1 1 1 1 1 1 0 0 0 0 0 0 0
12 13 14 15 15 16 17 16 13 10 8 8 9 8 7 6 6 4 2 1 1 1 1 0 0 0 0 0 0 0 0 0 0 0 0 0 0 0 0 0 0 0 0
13 11 12 13 14 14 16 17 14 10 8 8 10 12 12 10 9 7 4 2 1 1 1 1 1 0 0 0 0 0 0 0 0 0 0 0 0 0 0 0 0 0 0
11 9 10 11 13 14 15 15 13 10 9 8 10 13 13 10 8 6 4 3 2 2 2 2 2 1 1 1 0 0 0 0 0 0 0 0 0 0 0 0 0 0 0
9 7 7 9 11 12 13 14 11 8 6 5 7 9 8 5 3 2 1 1 2 3 3 3 3 3 2 2 1 1 1 1 0 0 0 0 0 0 0 0 0 0 0
6 5 5 7 8 9 11 12 11 7 3 2 2 3 2 1 0 0 0 0 1 1 3 3 3 3 3 3 3 2 2 2 1 0 0 0 0 0 0 0 0 0 0
4 3 4 5 6 8 9 10 10 8 4 1 0 0 0 0 0 0 0 0 0 1 3 3 3 3 3 3 3 3 3 3 2 1 1 1 1 1 1 1 0 0 0
3 3 3 4 5 6 7 8 8 7 5 3 1 0 0 0 0 0 0 0 1 2 3 3 3 3 3 3 3 3 3 3 3 3 2 2 2 2 1 0 0 0 0
2 2 3 3 3 4 6 7 6 4 4 3 2 1 0 0 0 0 0 0 1 2 3 3 3 3 3 3 3 3 3 3 3 3 3 3 3 2 1 0 0 0 0
1 1 1 2 3 4 5 6 4 3 2 2 2 1 0 0 0 0 0 0 0 1 3 3 3 3 3 3 3 3 3 3 3 3 3 3 3 1 0 0 0 0 0
1 1 1 2 3 4 5 5 3 1 1 1 1 1 0 0 0 0 0 0 0 1 2 3 3 3 3 3 3 3 3 3 3 3 3 3 2 1 0 0 0 0 0
2 3 3 4 4 4 4 4 2 0 0 0 0 0 0 0 0 0 0 0 0 1 2 3 3 3 3 3 3 3 3 3 3 3 3 2 1 0 0 0 0 0 0
3 4 5 5 4 4 4 4 2 0 0 0 1 1 1 0 0 0 0 0 0 1 2 2 2 2 2 2 2 2 2 2 2 2 2 1 0 0 0 0 0 0 0
3 3 4 4 4 3 4 4 4 2 0 1 2 2 1 0 0 0 0 0 0 0 1 1 1 1 1 1 1 1 1 1 1 1 1 0 0 0 0 0 0 0 0
3 3 3 3 3 3 4 5 6 4 1 1 2 2 1 0 0 0 0 0 0 0 0 0 0 0 0 0 0 0 0 0 0 0 0 0 0 0 0 0 0 0 0

GEFSGL_con_prob3kmehi_222.txt.gz
EHI
28 29 29 28 25 24 23 21 19 16 12 11 14 14 13 13 14 14 15 15 16 15 13 12 12 12 12 15 16 14 13 11 6 2 2 5 7 6 5 5 4 4 5
31 32 33 32 29 26 24 22 22 19 15 14 15 14 13 14 15 17 17 17 19 18 15 14 13 12 13 15 17 15 14 13 9 4 3 7 9 7 6 5 4 4 4
35 35 36 35 32 29 25 24 24 22 18 15 13 12 12 12 14 17 19 21 23 23 21 18 16 14 14 16 17 17 15 14 11 7 5 8 10 10 9 7 6 6 5
34 35 35 34 31 28 25 25 25 22 18 14 11 10 10 11 13 15 19 22 26 27 25 22 19 16 15 16 17 18 16 14 12 9 6 7 10 11 11 10 8 8 8
34 34 33 31 29 26 26 26 26 23 19 17 14 13 12 13 14 15 17 20 25 27 25 23 21 17 14 13 13 14 14 14 13 10 8 9 10 11 11 12 10 8 8
37 35 32 31 29 27 26 26 25 23 21 20 19 18 16 14 13 13 15 18 21 22 20 19 18 16 13 10 8 6 8 10 12 12 12 10 9 10 11 11 10 8 6
40 38 35 33 31 29 28 27 25 23 21 22 23 22 19 14 9 7 9 14 17 17 16 16 15 15 14 12 8 5 4 5 8 11 12 11 10 10 11 11 9 7 6
39 38 38 37 34 31 30 28 26 23 21 22 24 23 21 15 8 4 6 12 16 15 14 14 14 13 14 14 12 9 8 6 5 6 8 9 9 9 10 9 8 7 6
37 36 37 39 37 33 30 29 27 26 24 23 23 22 20 15 9 5 6 12 16 16 14 12 10 10 10 11 12 14 13 11 6 2 3 4 5 5 6 6 5 4 4
32 33 35 37 36 31 28 28 29 30 29 26 23 20 18 14 9 5 5 12 17 18 16 12 7 6 6 6 10 14 15 14 9 4 2 3 3 3 3 3 3 2 2
26 29 31 31 29 27 26 27 29 31 31 27 23 20 17 13 9 5 4 9 15 18 17 14 9 5 2 2 5 10 12 13 11 8 5 5 6 5 4 4 4 3 3
22 24 24 21 19 21 23 25 25 26 25 23 22 19 16 12 9 6 3 4 9 14 16 15 11 5 1 0 2 4 6 7 9 9 8 8 8 8 7 6 6 6 6
21 20 17 13 12 15 19 21 22 22 21 20 19 17 13 11 9 6 3 1 3 8 12 11 8 3 1 1 1 1 1 3 6 7 8 7 7 7 8 7 6 6 6
22 19 15 10 9 13 16 18 20 21 21 20 17 14 11 10 9 8 6 4 3 5 7 6 4 2 1 2 2 1 1 3 4 5 5 5 5 6 7 7 6 6 6
19 17 13 10 9 11 14 16 17 18 17 16 14 11 9 9 9 9 8 6 4 3 3 4 3 3 3 4 4 3 3 3 3 3 3 4 4 5 5 6 5 5 5
14 13 12 10 9 10 13 14 13 11 10 9 8 6 6 6 6 6 5 4 2 2 2 4 5 5 6 6 5 4 4 3 3 3 3 3 4 4 4 4 5 5 4
14 13 13 13 10 10 11 11 9 7 6 5 4 2 2 3 3 2 1 1 0 0 1 2 3 5 6 6 5 5 4 4 3 3 3 3 3 4 3 3 4 4 4
14 14 15 15 12 11 10 9 8 7 7 6 4 2 0 1 1 0 0 0 0 0 0 0 1 2 4 4 4 4 4 4 3 3 3 3 3 3 3 3 3 3 3
12 12 12 13 12 11 9 6 6 7 8 8 7 4 2 1 1 0 0 1 1 1 1 0 0 0 2 3 3 4 4 4 3 3 3 3 3 3 3 3 3 3 3
7 7 7 7 8 7 6 5 4 5 6 8 8 7 5 3 2 1 1 1 2 2 2 1 0 0 1 2 3 3 4 3 3 3 3 3 3 3 3 3 3 3 3
4 3 4 4 4 4 4 4 4 4 4 5 6 7 6 4 3 3 2 1 1 3 3 2 1 0 1 2 3 3 3 3 3 3 3 3 3 3 3 3 3 3 3
3 3 3 3 3 3 3 4 4 3 3 3 3 4 4 3 3 3 2 1 1 2 2 2 1 0 0 1 1 3 3 3 3 3 3 3 3 3 3 3 3 3 3
2 2 1 1 2 2 1 2 3 3 3 3 3 2 3 3 3 2 1 1 1 1 1 1 1 0 0 0 1 3 3 3 3 3 3 3 3 3 3 3 3 3 3
1 1 0 0 1 1 0 1 2 3 3 3 3 2 2 3 2 1 1 2 2 1 0 0 0 0 0 0 1 2 3 3 3 3 3 3 3 3 3 3 3 3 3
0 0 0 0 1 1 0 1 2 3 4 4 3 2 2 2 2 1 1 3 3 2 1 1 1 1 0 0 1 1 2 1 1 2 3 3 3 3 3 3 3 2 2
0 0 0 0 0 0 0 1 2 4 5 5 5 3 2 2 2 1 2 3 3 3 2 2 2 1 0 0 0 0 1 0 0 1 2 3 3 3 3 3 2 1 1

GEFSGL_con_prob3kmehi_228.txt.gz
EHI
58 57 54 49 46 44 40 36 36 38 37 33 31 32 30 27 28 29 25 23 24 25 24 20 18 18 18 19 19 18 15 12 9 7 8 13 20 20 15 14 14 11 8
60 59 56 52 50 48 45 43 43 44 41 37 34 30 25 23 25 27 25 23 24 24 22 20 19 19 19 19 19 20 17 14 11 8 7 12 17 17 15 14 12 10 9
62 60 56 55 54 52 51 50 51 49 46 39 33 25 19 16 18 21 20 20 22 22 22 22 21 19 18 18 18 19 19 16 14 11 9 10 13 14 13 12 10 9 9
63 60 56 55 54 52 51 50 50 49 44 37 29 22 16 13 14 16 17 18 20 21 22 23 22 19 18 17 16 17 17 17 15 14 12 11 12 13 12 10 9 8 8
61 59 57 56 53 50 47 45 45 44 40 34 29 24 19 14 12 15 18 19 20 21 22 24 22 19 16 14 13 14 14 15 15 14 13 12 14 15 13 11 9 7 6
58 56 56 55 52 49 45 42 39 37 36 33 30 28 23 15 11 13 17 20 21 22 22 22 21 18 14 11 9 8 9 11 12 12 12 12 15 17 15 12 10 7 6
54 53 53 52 49 47 44 40 36 35 34 33 31 29 25 17 10 9 12 18 22 22 21 21 20 17 14 13 10 8 7 7 8 9 10 11 14 16 15 13 11 9 7
49 49 49 48 46 46 44 40 37 35 35 34 31 28 25 17 10 6 8 16 22 21 20 20 22 19 15 14 14 12 10 8 6 6 7 8 10 12 12 12 11 8 6
45 46 47 45 45 46 45 41 38 36 35 32 29 26 23 18 12 7 8 15 21 22 21 20 22 20 14 11 12 14 13 10 6 4 4 4 4 5 7 10 9 6 4
42 43 44 43 42 42 42 40 38 36 33 29 25 23 22 19 13 8 8 15 21 22 22 21 19 17 11 6 8 12 13 12 9 6 4 3 1 1 3 6 7 6 4
39 38 38 36 34 34 36 37 36 35 32 28 25 23 21 18 13 6 5 10 17 20 21 19 15 11 6 2 5 10 11 10 10 10 7 5 3 2 2 3 5 7 6
33 32 30 28 26 28 31 32 32 30 29 28 27 25 21 17 11 5 3 5 9 14 15 14 10 6 2 0 2 5 6 6 9 9 8 6 5 4 3 3 5 6 7
25 24 24 22 21 24 27 27 26 25 24 25 25 23 21 18 12 6 3 2 3 6 8 8 6 3 1 0 1 2 3 5 8 9 8 7 7 6 5 5 5 5 5
20 19 19 19 20 22 22 20 21 21 20 20 21 22 22 21 16 10 6 3 2 3 5 5 4 2 2 2 2 3 4 7 9 9 9 8 8 7 6 5 5 4 4
19 17 16 17 18 19 17 14 14 15 14 14 16 19 21 19 15 11 9 7 5 4 4 5 4 4 4 5 5 5 7 9 9 9 8 7 6 6 5 5 5 4 4
18 17 15 15 16 16 14 11 9 8 7 7 9 12 14 12 9 7 7 7 5 4 5 7 7 6 6 7 6 6 7 8 8 7 6 5 4 4 4 4 5 5 5
18 17 14 13 14 14 12 10 8 5 4 5 4 4 6 5 3 3 3 2 2 3 6 8 9 8 8 8 7 6 6 6 7 6 4 3 3 3 3 4 5 5 6
16 15 13 12 12 12 11 11 9 6 7 8 6 3 2 1 1 1 0 1 2 4 7 9 10 9 9 9 8 6 5 5 5 5 4 4 3 3 3 4 4 5 5
10 10 11 11 11 11 11 10 8 7 9 12 12 7 3 0 0 0 0 3 5 6 7 8 9 9 9 9 8 6 5 4 4 5 6 5 4 4 3 3 4 4 4
6 5 6 7 8 9 9 8 6 5 8 12 13 10 6 3 2 2 2 4 6 7 7 7 8 8 7 7 6 5 4 4 3 4 6 6 5 5 4 3 3 3 3
3 3 3 4 5 6 7 6 4 3 4 7 9 8 5 5 5 5 4 5 7 7 7 6 6 6 5 4 4 3 3 3 3 3 4 5 5 5 4 3 3 3 3
3 3 3 3 3 3 4 4 2 1 1 3 4 4 3 4 5 5 5 7 8 7 6 5 5 4 3 3 3 3 3 3 3 3 3 4 3 3 3 2 3 3 3
3 3 3 3 3 2 2 1 1 0 0 1 2 3 3 3 4 4 5 6 7 6 5 5 4 3 2 3 3 3 3 4 4 3 3 3 3 1 1 1 1 2 2
3 3 3 3 2 1 0 0 0 0 0 0 1 2 3 4 4 5 6 7 6 6 5 4 4 2 1 2 3 3 4 4 4 4 3 3 3 1 0 0 0 1 1
3 3 3 2 1 1 0 0 1 1 0 0 0 1 3 5 6 6 7 7 7 6 5 4 3 3 1 1 1 2 3 3 3 3 3 3 3 2 1 0 0 0 0
3 3 3 1 0 0 0 1 2 2 1 0 0 1 3 6 6 7 8 7 6 5 5 4 3 3 2 1 1 2 2 1 1 2 3 3 3 3 2 1 0 0 0

GEFSGL_con_prob3kmehi_234.txt.gz
EHI
35 33 29 25 23 21 21 21 17 14 13 13 13 12 11 10 5 1 0 0 0 0 0 0 1 0 0 1 2 3 3 3 3 3 3 2 1 0 0 0 0 0 0
38 37 33 29 25 23 21 21 18 15 13 12 11 10 9 7 4 1 0 0 0 0 0 0 1 0 0 1 2 3 3 3 3 3 3 3 2 1 1 1 1 1 1
40 40 39 34 29 25 22 19 17 15 12 11 10 9 7 6 3 1 1 0 0 0 0 1 1 1 1 2 3 3 3 3 3 3 3 3 3 3 2 2 2 2 2
40 41 40 36 31 27 21 17 15 14 12 11 10 9 7 5 4 3 1 0 0 0 0 1 2 3 3 3 4 4 3 3 3 3 3 3 3 3 3 3 3 3 3
40 39 37 35 31 27 23 19 17 15 14 13 12 9 7 6 4 3 1 0 0 0 0 1 2 3 4 5 6 5 4 4 3 3 3 3 3 3 3 3 3 3 3
37 35 33 32 31 28 25 23 20 17 16 15 13 11 8 6 3 1 0 1 1 1 1 1 1 2 3 5 6 5 4 4 4 4 3 3 3 3 3 3 3 3 3
34 32 31 32 32 29 26 25 22 18 17 16 14 13 10 6 3 1 0 1 2 2 2 1 1 2 3 4 5 4 3 3 4 4 4 3 3 2 2 2 2 2 2
30 30 31 32 32 28 25 25 23 20 17 16 14 13 10 7 3 1 0 1 2 3 3 2 1 3 5 4 3 4 3 3 3 3 3 2 1 1 1 1 1 1 1
26 27 30 31 30 28 25 24 23 21 18 16 14 11 9 6 4 3 1 0 1 2 2 2 1 3 4 3 2 4 4 3 2 1 1 1 0 0 0 0 0 0 0
22 24 27 28 28 27 24 22 22 21 19 17 14 11 8 7 6 4 2 1 0 1 2 1 1 2 2 1 1 4 4 3 3 2 1 0 0 0 0 0 0 0 0
18 20 22 22 22 21 19 19 21 21 18 17 15 11 8 7 6 4 3 2 1 2 3 2 1 1 1 1 1 3 4 3 3 3 2 1 0 0 0 0 1 0 0
16 17 17 16 15 14 14 15 17 17 16 16 15 12 8 7 6 4 3 2 2 3 4 3 3 2 1 0 1 2 2 1 2 4 3 1 0 1 1 1 1 0 0
15 16 15 13 11 10 10 11 11 11 12 13 13 11 8 7 6 5 3 2 2 3 4 4 3 2 2 1 1 1 0 0 2 3 3 2 2 2 2 2 1 1 1
14 14 15 14 11 9 8 9 9 9 8 9 10 10 9 8 7 6 4 3 3 2 3 3 3 2 2 2 2 1 0 0 1 2 3 3 3 3 3 3 3 2 2
12 13 13 12 10 8 7 7 8 8 7 6 7 7 7 7 6 5 4 3 3 3 3 3 3 3 3 3 3 2 1 0 0 1 2 4 5 5 4 3 3 3 3
10 10 11 10 8 7 6 7 7 7 5 3 4 5 4 4 3 3 2 1 1 2 3 3 3 3 3 3 3 3 2 1 0 0 1 3 5 5 4 4 3 3 3
8 8 8 9 7 6 6 6 6 5 2 1 1 1 1 2 1 1 0 0 0 1 3 4 4 4 4 4 4 3 3 2 0 0 0 1 2 3 3 3 3 3 3
7 6 7 7 7 7 6 6 5 4 1 0 0 0 0 0 0 0 0 0 1 1 3 5 5 6 6 5 5 4 3 1 0 0 0 0 1 2 3 3 3 3 3
7 6 5 5 6 5 4 4 3 2 1 0 0 0 0 0 0 0 0 1 2 2 3 3 5 6 6 6 5 4 2 1 0 0 0 0 0 1 2 3 3 3 3
6 6 5 4 4 3 2 2 2 1 1 0 0 0 0 0 0 0 0 1 2 2 1 1 2 4 5 6 5 4 3 2 0 0 0 0 0 0 1 1 2 3 3
4 4 3 2 2 2 2 2 2 1 1 1 0 0 0 0 0 0 0 0 1 1 0 0 1 2 4 6 6 6 5 3 2 1 0 0 0 0 0 0 1 1 2
3 3 2 2 1 1 2 3 2 1 0 0 0 0 0 0 0 0 0 0 0 0 0 0 0 2 3 5 5 5 4 3 2 1 0 0 0 0 0 0 0 0 1
1 2 1 1 0 1 1 1 1 0 0 0 0 0 0 0 0 0 0 0 0 0 0 0 0 1 1 2 3 3 2 2 2 1 0 0 0 0 0 0 0 0 0
0 0 0 0 0 0 0 0 0 0 0 0 0 0 0 0 0 0 0 0 0 0 0 0 0 1 1 0 1 1 1 1 1 0 0 0 0 0 0 0 0 0 0
0 0 0 0 0 0 0 0 0 0 0 0 0 0 0 0 0 0 0 0 0 0 0 0 0 1 2 1 0 0 0 0 0 0 0 0 0 0 0 0 0 0 0
0 0 0 0 0 0 0 0 0 0 0 0 0 0 0 0 0 0 0 0 0 0 0 0 0 1 2 1 0 0 0 0 0 0 0 0 0 0 0 0 0 0 0

GEFSGL_con_prob3kmehi_240.txt.gz
EHI
12 12 14 14 13 13 13 12 11 11 10 10 10 10 9 7 5 4 3 1 0 0 0 0 0 0 1 2 1 0 0 0 1 1 1 0 0 0 0 0 0 0 0
12 12 14 15 15 14 14 14 14 11 9 9 9 9 8 6 5 4 3 2 1 0 0 0 0 0 1 2 1 0 0 1 2 1 0 0 0 0 0 0 0 0 0
12 12 14 16 17 16 16 15 13 10 7 7 7 7 6 6 6 6 5 3 1 0 0 0 0 0 1 1 0 0 1 1 2 1 1 0 0 0 0 0 0 0 0
13 13 13 16 18 18 17 14 11 8 6 5 5 5 5 5 7 7 6 4 1 0 0 0 0 0 0 0 1 1 2 2 2 1 1 1 0 0 0 0 0 0 0
17 16 16 17 18 19 19 14 9 6 6 6 6 5 5 5 5 6 6 5 2 0 0 0 0 0 0 0 1 2 2 2 2 2 2 2 2 1 1 1 0 0 0
22 22 21 20 20 20 19 14 8 5 6 7 7 7 6 5 3 3 4 4 1 0 0 0 0 0 0 0 1 1 1 1 2 4 5 4 4 5 4 2 0 0 0
22 23 24 23 22 21 18 13 8 6 6 8 8 7 6 5 3 1 2 3 1 1 1 1 1 0 0 1 1 0 0 0 1 3 5 6 6 6 4 1 0 0 0
19 22 24 22 20 18 16 12 9 8 9 9 9 7 6 6 3 1 1 2 2 2 2 3 2 1 0 1 2 1 1 1 0 1 3 4 4 4 2 0 0 0 0
16 17 18 16 14 13 13 12 11 11 12 11 11 9 9 8 4 1 1 3 4 3 4 4 2 1 0 1 2 3 2 2 1 0 1 1 1 1 0 0 0 0 1
11 12 12 12 9 8 10 11 12 12 11 11 11 10 11 10 5 1 1 4 5 5 5 5 3 1 0 1 2 3 3 3 1 1 0 0 0 0 0 0 0 1 2
7 8 9 9 7 6 7 9 10 10 9 9 9 9 9 9 5 1 1 3 5 5 5 5 4 2 1 0 1 1 2 2 2 2 1 0 0 1 1 0 1 2 3
6 6 6 6 6 6 6 7 8 8 8 7 7 6 6 6 4 1 0 1 3 3 3 4 4 3 1 0 0 0 1 1 3 3 1 0 0 1 2 2 1 2 3
5 5 4 4 4 5 5 6 7 8 8 7 6 4 5 5 3 1 0 0 1 1 1 2 2 2 1 1 1 0 0 1 3 3 2 1 0 1 4 4 2 1 2
4 4 4 4 5 5 6 6 7 8 8 7 6 5 4 4 3 2 1 1 1 0 0 1 1 1 1 2 2 1 1 2 3 3 3 2 1 1 3 4 3 1 1
4 4 4 5 5 6 6 6 7 7 7 6 6 7 5 3 2 2 2 2 1 0 0 0 0 1 2 3 3 3 3 3 3 3 3 2 1 0 1 2 2 1 0
4 4 4 3 3 4 4 5 6 6 4 3 4 5 4 2 1 1 1 1 1 0 0 0 0 1 2 3 3 3 3 3 3 3 3 2 1 0 0 1 1 0 0
5 4 3 2 3 4 4 5 5 5 3 1 1 1 1 1 0 0 0 0 0 0 0 0 0 0 1 2 3 3 3 3 3 3 3 3 1 0 0 0 0 0 0
3 3 3 4 5 5 6 5 5 4 3 1 0 0 0 0 0 0 0 0 0 0 0 0 0 0 0 1 2 3 3 3 3 3 3 3 2 1 0 0 0 0 0
2 1 2 4 5 5 6 5 5 4 3 2 0 0 0 0 0 0 0 0 0 0 0 0 0 0 0 0 2 3 4 4 4 4 4 3 3 2 1 0 0 0 0
1 0 1 2 2 3 4 3 4 4 3 2 1 0 0 0 0 0 0 0 0 0 0 0 0 0 0 1 2 3 5 5 6 5 5 4 4 4 2 1 0 0 0
0 0 0 0 1 1 1 1 2 3 3 3 2 1 0 0 0 0 0 0 0 0 0 0 0 0 1 2 3 3 4 5 6 6 4 4 4 4 3 1 0 0 0
0 0 0 0 0 0 0 0 1 1 2 3 2 1 0 0 0 0 0 0 0 0 0 0 0 0 1 2 2 2 3 3 4 4 4 3 4 4 3 2 1 0 0
0 0 0 0 0 0 0 1 1 0 1 2 1 0 0 0 0 0 0 0 0 0 0 0 0 0 0 1 1 1 1 1 1 3 3 3 3 3 3 2 1 0 0
0 0 0 0 0 0 1 2 2 1 0 0 0 0 0 0 0 0 0 0 0 0 0 0 0 0 0 0 0 0 0 0 0 1 3 3 3 3 3 2 1 0 0
0 0 0 0 0 0 1 2 2 1 0 0 0 0 0 0 0 0 0 0 0 0 0 0 0 0 0 0 0 0 0 0 0 1 2 3 3 4 3 1 0 0 0
0 0 0 0 0 0 0 1 1 0 0 0 0 0 0 0 0 0 0 0 0 0 0 0 0 0 0 0 0 0 0 0 0 0 1 3 4 4 3 1 0 0 0